URO601 ZUUU-EGHH

Flight info

Callsign URO601
Flight time N/A
Altitude 27600
Route MUMGO9W MUMGO B213 PEXUN/K0919S0950 L888 SANLI/K0907S0920 L888 SADAN W186 KAMUD/K0900F300 L141 TISIB L163 SR N193 OGOLI T898 ZAMWO/K0913F320 T898 DARVA/N0492F320 B476 METKA L88 NIJAT N644 ROLIN UN644 INB UL746 OLDUD/N0482F340 UL746 ODERO T86 MATEL T746 ARGES DCT BIVBU DCT ERUKO DCT FAHAZ DCT ARSIN DCT RENKA L610 STAUB/N0434F240 L610 UPALA/N0484F340 Z744 COSJE T892 RIDSU Z114 ADENU L608 DENUT L610 KOPUL Q63 IPKUS DCT UMBUR
Aircraft A346/H-SDE2E3FGHIJ3J4J5M1RWXY/LB1D1

Departure

Time 2026-05-08 18:48
Airport Chengdu Shuangliu International Airport (ZUUU)

Arrival

Time N/A
Airport Bournemouth Airport (EGHH)
Time Latitude Longitude Altitude Speed Heading
2026-05-08 18:13 30.56251 103.95520 1669 ft 0 kts 25°
2026-05-08 18:37 30.56240 103.95514 1672 ft 4 kts 21°
2026-05-08 18:37 30.56215 103.95507 1668 ft 4 kts
2026-05-08 18:37 30.56188 103.95505 1672 ft 4 kts
2026-05-08 18:38 30.56169 103.95505 1672 ft 1 kts
2026-05-08 18:38 30.56166 103.95504 1672 ft 0 kts
2026-05-08 18:41 30.56167 103.95504 1655 ft 0 kts
2026-05-08 18:41 30.56184 103.95505 1666 ft 4 kts 353°
2026-05-08 18:42 30.56221 103.95459 1662 ft 12 kts 297°
2026-05-08 18:42 30.56266 103.95341 1669 ft 19 kts 292°
2026-05-08 18:42 30.56316 103.95197 1665 ft 19 kts 292°
2026-05-08 18:42 30.56363 103.95064 1660 ft 17 kts 292°
2026-05-08 18:43 30.56409 103.94936 1666 ft 17 kts 293°
2026-05-08 18:43 30.56454 103.94815 1666 ft 16 kts 293°
2026-05-08 18:43 30.56495 103.94699 1666 ft 15 kts 292°
2026-05-08 18:43 30.56534 103.94586 1667 ft 15 kts 291°
2026-05-08 18:44 30.56500 103.94498 1663 ft 13 kts 211°
2026-05-08 18:44 30.56416 103.94455 1670 ft 13 kts 201°
2026-05-08 18:44 30.56331 103.94417 1670 ft 13 kts 201°
2026-05-08 18:44 30.56252 103.94372 1661 ft 12 kts 227°
2026-05-08 18:45 30.56255 103.94284 1664 ft 12 kts 291°
2026-05-08 18:45 30.56285 103.94195 1657 ft 12 kts 291°
2026-05-08 18:45 30.56315 103.94106 1659 ft 12 kts 292°
2026-05-08 18:45 30.56353 103.94021 1663 ft 11 kts 324°
2026-05-08 18:46 30.56390 103.94024 1663 ft 0 kts 20°
2026-05-08 18:46 30.56391 103.94024 1663 ft 0 kts 20°
2026-05-08 18:47 30.56415 103.94035 1665 ft 21 kts 20°
2026-05-08 18:47 30.56755 103.94192 1671 ft 84 kts 22°
2026-05-08 18:47 30.57482 103.94530 1666 ft 138 kts 21°
2026-05-08 18:47 30.58524 103.95016 1669 ft 183 kts 22°
2026-05-08 18:48 30.59797 103.95622 1816 ft 203 kts 22°
2026-05-08 18:48 30.61104 103.96252 2368 ft 204 kts 23°
2026-05-08 18:48 30.62426 103.96902 2935 ft 208 kts 22°
2026-05-08 18:48 30.63770 103.97554 3475 ft 210 kts 21°
2026-05-08 18:49 30.64658 103.97970 3800 ft 206 kts 21°
2026-05-08 18:49 30.66011 103.98580 4280 ft 209 kts 20°
2026-05-08 18:49 30.67811 103.99358 4974 ft 204 kts 22°
2026-05-08 18:49 30.68977 104.00252 5330 ft 201 kts 49°
2026-05-08 18:50 30.69728 104.01616 5585 ft 203 kts 63°
2026-05-08 18:50 30.70337 104.03122 5795 ft 208 kts 64°
2026-05-08 18:50 30.70773 104.04156 5922 ft 215 kts 62°
2026-05-08 18:50 30.71478 104.05726 6078 ft 228 kts 61°
2026-05-08 18:51 30.72253 104.07376 6334 ft 237 kts 60°
2026-05-08 18:51 30.73084 104.09074 6622 ft 246 kts 59°
2026-05-08 18:51 30.73947 104.10799 6837 ft 257 kts 59°
2026-05-08 18:51 30.74842 104.12599 7058 ft 269 kts 59°
2026-05-08 18:52 30.75717 104.14575 7299 ft 280 kts 75°
2026-05-08 18:52 30.75805 104.16821 7679 ft 285 kts 105°
2026-05-08 18:52 30.74917 104.18851 8147 ft 286 kts 134°
2026-05-08 18:52 30.73291 104.20151 8584 ft 289 kts 163°
2026-05-08 18:53 30.71302 104.20366 8996 ft 291 kts 193°
2026-05-08 18:53 30.69611 104.19594 9360 ft 293 kts 211°
2026-05-08 18:53 30.67936 104.18546 9578 ft 303 kts 206°
2026-05-08 18:53 30.66018 104.17529 9815 ft 314 kts 204°
2026-05-08 18:54 30.63997 104.16505 10129 ft 321 kts 205°
2026-05-08 18:54 30.62134 104.15095 10480 ft 323 kts 230°
2026-05-08 18:54 30.61065 104.12836 10869 ft 320 kts 260°
2026-05-08 18:54 30.60980 104.10285 11356 ft 315 kts 275°
2026-05-08 18:55 30.61141 104.05206 12130 ft 324 kts 273°
2026-05-08 18:55 30.61182 104.02568 12360 ft 331 kts 272°
2026-05-08 18:55 30.61233 103.99905 12576 ft 330 kts 274°
2026-05-08 18:56 30.61337 103.97320 12783 ft 331 kts 276°
2026-05-08 18:56 30.61584 103.94692 13005 ft 333 kts 280°
2026-05-08 18:56 30.61933 103.91998 13269 ft 341 kts 281°
2026-05-08 18:56 30.62283 103.89225 13472 ft 352 kts 280°
2026-05-08 18:57 30.62616 103.86373 13689 ft 361 kts 279°
2026-05-08 18:57 30.62940 103.83435 13882 ft 372 kts 279°
2026-05-08 18:57 30.63263 103.80416 14060 ft 382 kts 279°
2026-05-08 18:57 30.63591 103.77304 14232 ft 391 kts 279°
2026-05-08 18:58 30.63921 103.74164 14394 ft 401 kts 278°
2026-05-08 18:58 30.64285 103.70911 14631 ft 407 kts 281°
2026-05-08 18:58 30.64804 103.67712 15036 ft 408 kts 284°
2026-05-08 18:58 30.65496 103.64556 15505 ft 407 kts 287°
2026-05-08 18:59 30.66268 103.61381 15945 ft 408 kts 287°
2026-05-08 18:59 30.67050 103.58201 16362 ft 409 kts 287°
2026-05-08 18:59 30.67829 103.55018 16772 ft 410 kts 287°
2026-05-08 18:59 30.68601 103.51851 17183 ft 411 kts 286°
2026-05-08 19:00 30.69376 103.48658 17594 ft 412 kts 286°
2026-05-08 19:00 30.70155 103.45446 18049 ft 411 kts 285°
2026-05-08 19:00 30.70926 103.42250 18507 ft 410 kts 285°
2026-05-08 19:00 30.71695 103.39054 18839 ft 411 kts 285°
2026-05-08 19:01 30.72465 103.35843 19136 ft 412 kts 285°
2026-05-08 19:01 30.73238 103.32619 19420 ft 413 kts 285°
2026-05-08 19:01 30.74000 103.29441 19683 ft 415 kts 285°
2026-05-08 19:01 30.74779 103.26187 19969 ft 417 kts 285°
2026-05-08 19:02 30.75558 103.22931 20304 ft 417 kts 285°
2026-05-08 19:02 30.76338 103.19668 20621 ft 419 kts 285°
2026-05-08 19:02 30.77110 103.16434 20928 ft 420 kts 285°
2026-05-08 19:02 30.77893 103.13146 21231 ft 421 kts 285°
2026-05-08 19:03 30.78677 103.09854 21541 ft 423 kts 285°
2026-05-08 19:03 30.79463 103.06546 21812 ft 424 kts 284°
2026-05-08 19:03 30.80088 103.03181 22108 ft 425 kts 279°
2026-05-08 19:03 30.80443 102.99760 22405 ft 426 kts 274°
2026-05-08 19:04 30.80531 102.96301 22638 ft 428 kts 270°
2026-05-08 19:04 30.80486 102.92836 22897 ft 429 kts 269°
2026-05-08 19:04 30.80417 102.89348 23164 ft 431 kts 269°
2026-05-08 19:04 30.80348 102.85853 23453 ft 432 kts 269°
2026-05-08 19:05 30.80280 102.82349 23690 ft 433 kts 269°
2026-05-08 19:05 30.80212 102.78821 23903 ft 435 kts 269°
2026-05-08 19:05 30.80147 102.75302 24124 ft 435 kts 269°
2026-05-08 19:05 30.80081 102.71772 24353 ft 436 kts 269°
2026-05-08 19:06 30.80012 102.68240 24615 ft 436 kts 269°
2026-05-08 19:06 30.79943 102.64713 24863 ft 437 kts 269°
2026-05-08 19:06 30.79874 102.61171 25056 ft 438 kts 269°
2026-05-08 19:06 30.79805 102.57623 25273 ft 439 kts 268°
2026-05-08 19:07 30.79735 102.54115 25500 ft 439 kts 268°
2026-05-08 19:07 30.79663 102.50548 25721 ft 440 kts 268°
2026-05-08 19:07 30.79589 102.46977 25943 ft 441 kts 268°
2026-05-08 19:07 30.79514 102.43404 26193 ft 441 kts 268°
2026-05-08 19:08 30.79438 102.39824 26416 ft 442 kts 268°
2026-05-08 19:08 30.79360 102.36233 26583 ft 444 kts 268°
2026-05-08 19:08 30.79282 102.32626 26763 ft 446 kts 268°
2026-05-08 19:08 30.79202 102.29004 26940 ft 447 kts 268°
2026-05-08 19:09 30.79121 102.25393 27152 ft 448 kts 268°
2026-05-08 19:09 30.79039 102.21756 27320 ft 449 kts 268°
2026-05-08 19:09 30.78956 102.18130 27514 ft 450 kts 268°
2026-05-08 19:09 30.78872 102.14530 27706 ft 451 kts 268°
2026-05-08 19:10 30.78786 102.10880 27837 ft 452 kts 268°
2026-05-08 19:10 30.78698 102.07214 27833 ft 451 kts 268°
2026-05-08 19:10 30.78609 102.03549 27835 ft 451 kts 268°
2026-05-08 19:10 30.78519 101.99898 27838 ft 454 kts 268°
2026-05-08 19:11 30.78427 101.96216 27838 ft 456 kts 268°
2026-05-08 19:11 30.78372 101.92520 27840 ft 456 kts 270°
2026-05-08 19:11 30.78465 101.88850 27831 ft 456 kts 272°
2026-05-08 19:11 30.78710 101.85178 27827 ft 456 kts 275°
2026-05-08 19:12 30.79014 101.81492 27824 ft 456 kts 275°
2026-05-08 19:12 30.79321 101.77824 27828 ft 456 kts 275°
2026-05-08 19:12 30.79629 101.74145 27811 ft 456 kts 275°
2026-05-08 19:12 30.79932 101.70510 27814 ft 456 kts 275°
2026-05-08 19:13 30.80237 101.66829 27812 ft 456 kts 275°
2026-05-08 19:13 30.80542 101.63148 27809 ft 457 kts 275°
2026-05-08 19:13 30.80844 101.59463 27793 ft 457 kts 275°
2026-05-08 19:13 30.81145 101.55774 27785 ft 457 kts 275°
2026-05-08 19:14 30.81444 101.52087 27794 ft 457 kts 275°
2026-05-08 19:14 30.81744 101.48383 27892 ft 460 kts 275°
2026-05-08 19:14 30.82169 101.44696 28099 ft 462 kts 284°
2026-05-08 19:14 30.83472 101.41268 28175 ft 468 kts 302°
2026-05-08 19:15 30.85589 101.38373 28406 ft 471 kts 312°
2026-05-08 19:15 30.87926 101.35694 28674 ft 471 kts 312°
2026-05-08 19:15 30.90260 101.32997 28795 ft 473 kts 312°
2026-05-08 19:15 30.92592 101.30271 28927 ft 475 kts 311°
2026-05-08 19:16 30.94921 101.27532 29093 ft 476 kts 311°
2026-05-08 19:16 30.97249 101.24773 29243 ft 477 kts 311°
2026-05-08 19:16 30.99577 101.21999 29424 ft 478 kts 311°
2026-05-08 19:16 31.01910 101.19214 29581 ft 479 kts 311°
2026-05-08 19:17 31.04242 101.16427 29810 ft 479 kts 310°
2026-05-08 19:17 31.06566 101.13648 30118 ft 477 kts 310°
2026-05-08 19:17 31.08845 101.10920 30436 ft 474 kts 310°
2026-05-08 19:17 31.11147 101.08160 30678 ft 473 kts 310°
2026-05-08 19:18 31.13442 101.05405 30877 ft 472 kts 310°
2026-05-08 19:18 31.15731 101.02654 31081 ft 472 kts 310°
2026-05-08 19:18 31.18016 100.99905 31273 ft 471 kts 310°
2026-05-08 19:19 31.22578 100.94414 31354 ft 470 kts 310°
2026-05-08 19:19 31.27124 100.88933 31362 ft 470 kts 310°
2026-05-08 19:20 31.31683 100.83429 31372 ft 470 kts 310°
2026-05-08 19:20 31.36232 100.77924 31383 ft 471 kts 310°
2026-05-08 19:21 31.40767 100.72434 31389 ft 472 kts 310°
2026-05-08 19:21 31.45340 100.66893 31389 ft 472 kts 310°
2026-05-08 19:22 31.49904 100.61353 31387 ft 472 kts 310°
2026-05-08 19:22 31.54493 100.55770 31396 ft 472 kts 310°
2026-05-08 19:23 31.59029 100.50242 31388 ft 473 kts 310°
2026-05-08 19:23 31.63600 100.44672 31388 ft 473 kts 310°
2026-05-08 19:24 31.68176 100.39075 31401 ft 475 kts 311°
2026-05-08 19:24 31.72764 100.33466 31403 ft 476 kts 311°
2026-05-08 19:25 31.77354 100.27845 31408 ft 476 kts 311°
2026-05-08 19:25 31.81909 100.22255 31393 ft 476 kts 311°
2026-05-08 19:26 31.86498 100.16612 31405 ft 476 kts 311°
2026-05-08 19:26 31.91079 100.10971 31400 ft 476 kts 311°
2026-05-08 19:27 31.95666 100.05314 31410 ft 476 kts 311°
2026-05-08 19:27 32.00108 99.99525 31405 ft 475 kts 307°
2026-05-08 19:28 32.04072 99.93349 31415 ft 474 kts 303°
2026-05-08 19:28 32.07917 99.87027 31410 ft 474 kts 303°
2026-05-08 19:29 32.11759 99.80689 31418 ft 473 kts 303°
2026-05-08 19:29 32.15590 99.74365 31424 ft 473 kts 303°
2026-05-08 19:30 32.19420 99.68032 31420 ft 473 kts 303°
2026-05-08 19:30 32.23240 99.61707 31421 ft 473 kts 303°
2026-05-08 19:31 32.27062 99.55368 31420 ft 473 kts 303°
2026-05-08 19:31 32.30878 99.49030 31416 ft 473 kts 303°
2026-05-08 19:32 32.34689 99.42690 31414 ft 472 kts 303°
2026-05-08 19:32 32.38494 99.36347 31409 ft 471 kts 303°
2026-05-08 19:33 32.42294 99.30004 31410 ft 472 kts 303°
2026-05-08 19:33 32.46064 99.23699 31410 ft 472 kts 303°
2026-05-08 19:34 32.49859 99.17341 31410 ft 471 kts 303°
2026-05-08 19:34 32.53648 99.10981 31408 ft 472 kts 303°
2026-05-08 19:35 32.57440 99.04607 31413 ft 475 kts 302°
2026-05-08 19:35 32.60619 98.99261 31407 ft 476 kts 303°
2026-05-08 19:36 32.64525 98.92890 31405 ft 477 kts 303°
2026-05-08 19:36 32.68457 98.86510 31403 ft 477 kts 303°
2026-05-08 19:37 32.72371 98.80133 31404 ft 477 kts 303°
2026-05-08 19:37 32.76278 98.73745 31406 ft 477 kts 303°
2026-05-08 19:38 32.80180 98.67359 31407 ft 477 kts 303°
2026-05-08 19:38 32.84051 98.61001 31404 ft 477 kts 303°
2026-05-08 19:39 32.87944 98.54600 31421 ft 475 kts 302°
2026-05-08 19:39 32.91804 98.48242 31410 ft 473 kts 302°
2026-05-08 19:40 32.95659 98.41879 31411 ft 473 kts 303°
2026-05-08 19:40 32.99543 98.35559 31416 ft 473 kts 303°
2026-05-08 19:41 33.03436 98.29239 31421 ft 472 kts 303°
2026-05-08 19:41 33.07314 98.22925 31421 ft 472 kts 303°
2026-05-08 19:42 33.11163 98.16644 31428 ft 472 kts 303°
2026-05-08 19:42 33.15041 98.10301 31427 ft 472 kts 303°
2026-05-08 19:43 33.18912 98.03955 31433 ft 471 kts 303°
2026-05-08 19:43 33.22767 97.97629 31441 ft 470 kts 303°
2026-05-08 19:44 33.26607 97.91313 31443 ft 472 kts 303°
2026-05-08 19:44 33.30473 97.84948 31437 ft 472 kts 303°
2026-05-08 19:45 33.34332 97.78582 31455 ft 472 kts 303°
2026-05-08 19:45 33.38193 97.72202 31459 ft 472 kts 303°
2026-05-08 19:46 33.42048 97.65820 31460 ft 472 kts 303°
2026-05-08 19:46 33.47794 97.56288 31479 ft 470 kts 303°
2026-05-08 19:47 33.51604 97.49954 31477 ft 467 kts 303°
2026-05-08 19:47 33.55408 97.43617 31476 ft 467 kts 303°
2026-05-08 19:48 33.59208 97.37275 31477 ft 467 kts 303°
2026-05-08 19:48 33.63005 97.30929 31477 ft 467 kts 303°
2026-05-08 19:49 33.66772 97.24621 31483 ft 467 kts 303°
2026-05-08 19:49 33.70560 97.18268 31497 ft 467 kts 303°
2026-05-08 19:50 33.74345 97.11909 31498 ft 467 kts 302°
2026-05-08 19:50 33.78129 97.05540 31498 ft 467 kts 302°
2026-05-08 19:51 33.81904 96.99174 31522 ft 467 kts 302°
2026-05-08 19:51 33.85674 96.92807 31520 ft 467 kts 302°
2026-05-08 19:52 33.89421 96.86467 31524 ft 467 kts 302°
2026-05-08 19:52 33.93185 96.80086 31532 ft 467 kts 302°
2026-05-08 19:53 33.96947 96.73697 31532 ft 467 kts 302°
2026-05-08 19:53 34.00720 96.67280 31532 ft 467 kts 302°
2026-05-08 19:54 34.04477 96.60875 31560 ft 467 kts 302°
2026-05-08 19:54 34.08209 96.54505 31541 ft 462 kts 302°
2026-05-08 19:55 34.11903 96.48210 31544 ft 462 kts 303°
2026-05-08 19:55 34.15690 96.41933 31553 ft 461 kts 303°
2026-05-08 19:56 34.19475 96.35665 31564 ft 461 kts 303°
2026-05-08 19:56 34.23255 96.29380 31563 ft 461 kts 303°
2026-05-08 19:57 34.27027 96.23093 31575 ft 461 kts 303°
2026-05-08 19:57 34.30798 96.16794 31576 ft 461 kts 303°
2026-05-08 19:58 34.34555 96.10507 31583 ft 458 kts 303°
2026-05-08 19:58 34.38287 96.04250 31582 ft 458 kts 303°
2026-05-08 19:59 34.42010 95.97996 31576 ft 458 kts 302°
2026-05-08 19:59 34.45737 95.91724 31574 ft 458 kts 302°
2026-05-08 20:00 34.49449 95.85466 31574 ft 458 kts 302°
2026-05-08 20:00 34.53147 95.79221 31579 ft 458 kts 302°
2026-05-08 20:01 34.56889 95.72890 31569 ft 458 kts 302°
2026-05-08 20:01 34.60578 95.66644 31592 ft 458 kts 302°
2026-05-08 20:02 34.64288 95.60350 31578 ft 456 kts 302°
2026-05-08 20:02 34.67983 95.54062 31577 ft 456 kts 302°
2026-05-08 20:03 34.71676 95.47768 31589 ft 456 kts 302°
2026-05-08 20:03 34.75335 95.41522 31584 ft 456 kts 302°
2026-05-08 20:04 34.79028 95.35208 31588 ft 456 kts 302°
2026-05-08 20:04 34.82707 95.28909 31586 ft 455 kts 302°
2026-05-08 20:05 34.86380 95.22608 31585 ft 455 kts 302°
2026-05-08 20:05 34.90048 95.16308 31592 ft 454 kts 301°
2026-05-08 20:06 34.93668 95.10075 31589 ft 453 kts 301°
2026-05-08 20:06 34.97308 95.03793 31592 ft 453 kts 301°
2026-05-08 20:07 35.00942 94.97512 31578 ft 453 kts 301°
2026-05-08 20:07 35.04583 94.91210 31579 ft 453 kts 301°
2026-05-08 20:08 35.08212 94.84916 31576 ft 453 kts 301°
2026-05-08 20:08 35.11843 94.78609 31575 ft 453 kts 301°
2026-05-08 20:09 35.15466 94.72303 31568 ft 453 kts 301°
2026-05-08 20:09 35.19059 94.66045 31574 ft 451 kts 301°
2026-05-08 20:10 35.22669 94.59737 31574 ft 451 kts 301°
2026-05-08 20:10 35.26266 94.53444 31581 ft 450 kts 300°
2026-05-08 20:11 35.29838 94.47180 31587 ft 450 kts 300°
2026-05-08 20:11 35.33426 94.40876 31588 ft 450 kts 300°
2026-05-08 20:12 35.37010 94.34569 31591 ft 450 kts 300°
2026-05-08 20:12 35.40592 94.28254 31596 ft 450 kts 300°
2026-05-08 20:13 35.44169 94.21940 31611 ft 450 kts 300°
2026-05-08 20:13 35.47800 94.15662 31608 ft 451 kts 301°
2026-05-08 20:14 35.51494 94.09408 31610 ft 451 kts 301°
2026-05-08 20:14 35.55178 94.03150 31611 ft 451 kts 301°
2026-05-08 20:15 35.58825 93.96931 31611 ft 451 kts 301°
2026-05-08 20:15 35.62497 93.90654 31617 ft 451 kts 301°
2026-05-08 20:16 35.66159 93.84381 31614 ft 451 kts 301°
2026-05-08 20:16 35.69825 93.78086 31638 ft 453 kts 301°
2026-05-08 20:17 35.73523 93.71718 31627 ft 457 kts 301°
2026-05-08 20:17 35.77202 93.65387 31620 ft 457 kts 301°
2026-05-08 20:18 35.80906 93.58999 31618 ft 457 kts 301°
2026-05-08 20:18 35.84612 93.52592 31625 ft 458 kts 301°
2026-05-08 20:19 35.88312 93.46182 31631 ft 458 kts 301°
2026-05-08 20:19 35.92004 93.39773 31628 ft 457 kts 301°
2026-05-08 20:20 35.95663 93.33407 31639 ft 457 kts 301°
2026-05-08 20:20 35.99353 93.26962 31645 ft 460 kts 302°
2026-05-08 20:21 36.03137 93.20550 31626 ft 460 kts 303°
2026-05-08 20:21 36.06965 93.14182 31644 ft 460 kts 303°
2026-05-08 20:22 36.10137 93.08886 31627 ft 460 kts 303°
2026-05-08 20:22 36.13945 93.02495 31625 ft 461 kts 303°
2026-05-08 20:23 36.17752 92.96095 31636 ft 462 kts 303°
2026-05-08 20:23 36.21536 92.89722 31635 ft 462 kts 303°
2026-05-08 20:24 36.25345 92.83279 31610 ft 464 kts 304°
2026-05-08 20:24 36.29177 92.76803 31613 ft 464 kts 304°
2026-05-08 20:25 36.33003 92.70322 31613 ft 465 kts 304°
2026-05-08 20:25 36.36818 92.63839 31620 ft 466 kts 304°
2026-05-08 20:26 36.40641 92.57334 31609 ft 466 kts 304°
2026-05-08 20:26 36.44445 92.50852 31585 ft 466 kts 304°
2026-05-08 20:27 36.48270 92.44321 31587 ft 466 kts 304°
2026-05-08 20:27 36.52085 92.37794 31605 ft 466 kts 304°
2026-05-08 20:28 36.55899 92.31255 31573 ft 466 kts 304°
2026-05-08 20:28 36.59713 92.24690 31599 ft 468 kts 304°
2026-05-08 20:29 36.63523 92.18135 31567 ft 469 kts 304°
2026-05-08 20:29 36.67356 92.11531 31591 ft 469 kts 304°
2026-05-08 20:30 36.71185 92.04918 31577 ft 469 kts 304°
2026-05-08 20:30 36.75000 91.98304 31593 ft 471 kts 305°
2026-05-08 20:31 36.78846 91.91633 31578 ft 472 kts 305°
2026-05-08 20:31 36.82698 91.84928 31569 ft 476 kts 306°
2026-05-08 20:32 36.86541 91.78244 31591 ft 477 kts 306°
2026-05-08 20:32 36.90408 91.71503 31578 ft 477 kts 306°
2026-05-08 20:33 36.94274 91.64746 31613 ft 477 kts 306°
2026-05-08 20:33 36.98136 91.57981 31613 ft 477 kts 306°
2026-05-08 20:34 37.01998 91.51183 31605 ft 479 kts 307°
2026-05-08 20:35 37.07826 91.40944 31624 ft 481 kts 307°
2026-05-08 20:35 37.11676 91.34158 31635 ft 481 kts 307°
2026-05-08 20:36 37.15548 91.27315 31631 ft 481 kts 307°
2026-05-08 20:36 37.19421 91.20453 31639 ft 481 kts 307°
2026-05-08 20:37 37.23288 91.13590 31615 ft 481 kts 307°
2026-05-08 20:37 37.27157 91.06706 31625 ft 482 kts 307°
2026-05-08 20:38 37.31028 90.99806 31628 ft 483 kts 307°
2026-05-08 20:38 37.34895 90.92897 31617 ft 482 kts 307°
2026-05-08 20:39 37.38756 90.85986 31616 ft 482 kts 307°
2026-05-08 20:39 37.42616 90.79062 31607 ft 483 kts 307°
2026-05-08 20:40 37.46478 90.72126 31611 ft 483 kts 306°
2026-05-08 20:40 37.50309 90.65223 31611 ft 483 kts 306°
2026-05-08 20:41 37.54159 90.58269 31596 ft 483 kts 306°
2026-05-08 20:41 37.57999 90.51322 31596 ft 483 kts 306°
2026-05-08 20:42 37.61845 90.44350 31594 ft 483 kts 306°
2026-05-08 20:42 37.65684 90.37374 31577 ft 483 kts 306°
2026-05-08 20:43 37.69520 90.30390 31577 ft 484 kts 306°
2026-05-08 20:43 37.73326 90.23439 31557 ft 483 kts 306°
2026-05-08 20:44 37.77162 90.16463 31558 ft 482 kts 307°
2026-05-08 20:44 37.81068 90.09549 31555 ft 482 kts 307°
2026-05-08 20:45 37.84973 90.02632 31543 ft 482 kts 307°
2026-05-08 20:45 37.88844 89.95744 31541 ft 483 kts 306°
2026-05-08 20:46 37.92744 89.88778 31536 ft 484 kts 306°
2026-05-08 20:46 37.96635 89.81808 31538 ft 483 kts 306°
2026-05-08 20:47 38.00518 89.74838 31529 ft 482 kts 306°
2026-05-08 20:47 38.04396 89.67872 31541 ft 482 kts 306°
2026-05-08 20:48 38.08249 89.60940 31543 ft 482 kts 306°
2026-05-08 20:48 38.12116 89.53963 31544 ft 482 kts 306°
2026-05-08 20:49 38.15969 89.46990 31542 ft 482 kts 306°
2026-05-08 20:49 38.19825 89.39996 31532 ft 482 kts 306°
2026-05-08 20:50 38.23666 89.33012 31541 ft 481 kts 306°
2026-05-08 20:50 38.27499 89.26032 31540 ft 481 kts 306°
2026-05-08 20:51 38.31314 89.19070 31532 ft 482 kts 306°
2026-05-08 20:51 38.35152 89.12051 31532 ft 482 kts 306°
2026-05-08 20:52 38.38984 89.05025 31515 ft 482 kts 306°
2026-05-08 20:52 38.42809 88.97996 31520 ft 482 kts 306°
2026-05-08 20:53 38.46625 88.90968 31512 ft 480 kts 306°
2026-05-08 20:53 38.50427 88.83953 31472 ft 481 kts 306°
2026-05-08 20:54 38.54218 88.76937 31463 ft 482 kts 306°
2026-05-08 20:54 38.58028 88.69890 31424 ft 481 kts 306°
2026-05-08 20:55 38.61994 88.62989 31428 ft 481 kts 308°
2026-05-08 20:55 38.66002 88.56095 31374 ft 481 kts 308°
2026-05-08 20:56 38.69979 88.49205 31372 ft 479 kts 307°
2026-05-08 20:56 38.73939 88.42315 31342 ft 480 kts 307°
2026-05-08 20:57 38.77865 88.35460 31341 ft 480 kts 307°
2026-05-08 20:57 38.81815 88.28545 31317 ft 480 kts 307°
2026-05-08 20:58 38.85763 88.21620 31282 ft 480 kts 307°
2026-05-08 20:58 38.89706 88.14689 31260 ft 480 kts 307°
2026-05-08 20:59 38.93644 88.07751 31233 ft 480 kts 307°
2026-05-08 20:59 38.97591 88.00782 31228 ft 481 kts 307°
2026-05-08 21:00 39.01537 87.93799 31223 ft 481 kts 307°
2026-05-08 21:00 39.05450 87.86859 31227 ft 482 kts 307°
2026-05-08 21:01 39.09384 87.79869 31225 ft 481 kts 307°
2026-05-08 21:01 39.13301 87.72894 31213 ft 480 kts 307°
2026-05-08 21:02 39.17211 87.65914 31217 ft 480 kts 307°
2026-05-08 21:02 39.21123 87.58916 31219 ft 480 kts 307°
2026-05-08 21:03 39.25038 87.51898 31224 ft 480 kts 307°
2026-05-08 21:03 39.28922 87.44919 31216 ft 480 kts 307°
2026-05-08 21:04 39.32821 87.37899 31210 ft 480 kts 307°
2026-05-08 21:04 39.36706 87.30891 31210 ft 479 kts 307°
2026-05-08 21:05 39.40587 87.23872 31210 ft 479 kts 307°
2026-05-08 21:05 39.44466 87.16840 31206 ft 479 kts 307°
2026-05-08 21:06 39.48316 87.09846 31210 ft 479 kts 307°
2026-05-08 21:06 39.52183 87.02807 31219 ft 479 kts 306°
2026-05-08 21:07 39.56038 86.95774 31208 ft 477 kts 306°
2026-05-08 21:07 39.59876 86.88754 31204 ft 477 kts 306°